Flag for U.S.A. Weather past 2 weeks in Salinas, California, U.S.A.

Now
58 °F

Clear.


Feels Like: 58 °F
Forecast: 46 / 69 °F
Wind: No wind

Location: Salinas Municipal Airport

Current Time: Mar 29, 2015 at 11:36:11 PM

Latest Report: Mar 29, 2015 at 10:53 PM


Visibility: 9 mi

Pressure: 30.08 "Hg

Humidity: 72%

Dew point: 49 °F

Location of SalinasLocation

Historic Weather in Salinas — Graph

°F

Salinas temperature yesterday

Maximum temperature yesterday: 76 °F (at 1:53 PM)
Minimum temperature yesterday: 53 °F (at 6:53 AM)
Average temperature yesterday: 61 °F

Past Weeks' High & Low Weather Summary

 TemperatureHumidityPressure
High88 °F (Mar 26, 1:53 PM)96% (Mar 28, 7:53 AM)30.34 "Hg (Mar 28, 7:53 AM)
Low47 °F (Mar 21, 7:53 AM)22% (Mar 26, 1:53 PM)29.98 "Hg (Mar 16, 4:53 PM)
Average61 °F65%30.14 "Hg
* Reported Mar 14 9:53 PM — Mar 29 9:53 PM, Salinas, Weather by CustomWeather, © 2015

Note: Actual official high and low records may vary slightly from our data, if they occured in-between our weather recording intervals... More about our weather records

Advertising

Salinas weather history for previous 24 hours

 ConditionsComfort  
Time TempWeatherWind HumidityBarometerVisibility
9:53 PM
Sun, Mar 29
58 °FClear.7 mph75%30.07 "Hg9 mi
8:53 PM59 °FClear.8 mph72%30.08 "Hg9 mi
7:53 PM60 °FSunny.7 mph69%30.07 "Hg9 mi
6:53 PM65 °FSunny.9 mph56%30.06 "Hg10 mi
5:53 PM68 °FSunny.10 mph49%30.06 "Hg10 mi
4:53 PM66 °FSunny.14 mph52%30.06 "Hg10 mi
3:53 PM68 °FSunny.15 mph53%30.06 "Hg9 mi
2:53 PM72 °FSunny.17 mph44%30.06 "Hg10 mi
1:53 PM75 °FSunny.10 mph43%30.07 "Hg10 mi
12:53 PM73 °FSunny.10 mph46%30.09 "Hg10 mi
11:53 AM71 °FSunny.5 mph44%30.12 "Hg10 mi
10:53 AM66 °FSunny.No wind52%30.14 "Hg10 mi
9:53 AM61 °FSunny.3 mph65%30.14 "Hg8 mi
8:53 AM52 °FFog.5 mph89%30.14 "Hg6 mi
7:53 AM50 °FFog.6 mph89%30.14 "Hg0 mi
6:53 AM49 °FLow clouds.No wind80%30.13 "Hg9 mi
5:53 AM53 °FFog.No wind86%30.13 "Hg4 mi
4:53 AM53 °FLow clouds.3 mph80%30.14 "Hg7 mi
3:53 AM53 °FClear.5 mph80%30.13 "Hg8 mi
2:53 AM52 °FClear.No wind77%30.14 "Hg9 mi
1:53 AM52 °FClear.No wind80%30.14 "Hg7 mi
12:53 AM56 °FClear.7 mph75%30.15 "Hg8 mi
11:53 PM
Sat, Mar 28
56 °FClear.8 mph75%30.16 "Hg8 mi
Weather by CustomWeather, © 2015

See weather overviewHow to use our weather pages